DW6873 Weather Reports


time (UTC)temp
C
wind
direction
speed
KPH
gust
KPH
rain 1hr
cm
rain 24hr
cm
rain mn
cm
humidity
%
barometer
mb
20260507134539 5 276 0.0 0.0 0.00 0.00 0.00 54 1012.5
20260507133030 4 283 0.0 0.0 0.00 0.00 0.00 57 1012.4
20260507131536 3 264 0.0 0.0 0.00 0.00 0.00 62 1012.3
20260507130029 2 244 0.0 0.0 0.00 0.00 0.00 67 1012.3
20260507124526 0 244 0.0 0.0 0.00 0.00 0.00 76 1012.2
20260507123028 -2 244 0.0 0.0 0.00 0.00 0.00 79 1012.1
20260507121525 -17 0.0 0.0 0.00 0.00 0.00 1011.9
20260507120018 -17 0.0 0.0 0.00 0.00 0.00 1011.9
20260507114524 -17 0.0 0.0 0.00 0.00 0.00 1011.8
20260507113010 -17 0.0 0.0 0.00 0.00 0.00 1011.8
20260507111510 -3 223 0.0 0.0 0.00 0.00 0.00 75 1012.0
20260507110002 -3 236 0.0 0.0 0.00 0.00 0.00 73 1011.9
20260507104501 -3 212 0.0 0.0 0.00 0.00 0.00 75 1011.8
20260507103100 -3 274 0.0 0.0 0.00 0.00 0.00 74 1012.0
20260507101600 -3 246 0.0 0.0 0.00 0.00 0.00 76 1012.1
20260507100057 -3 269 0.0 0.0 0.00 0.00 0.00 76 1012.1
20260507094610 -3 184 0.0 0.0 0.00 0.00 0.00 73 1012.2
20260507093059 -3 210 0.0 0.0 0.00 0.00 0.00 73 1012.2
20260507091626 -2 210 0.0 0.0 0.00 0.00 0.00 71 1012.2
20260507090105 -2 275 0.0 0.0 0.00 0.00 0.00 73 1012.2
20260507084555 -2 275 0.0 0.0 0.00 0.00 0.00 75 1012.2
20260507083052 -3 275 0.0 0.0 0.00 0.00 0.00 75 1012.2
20260507081548 -4 275 0.0 0.0 0.00 0.00 0.00 80 1012.2
20260507080046 -5 275 0.0 0.0 0.00 0.00 0.00 76 1012.3
20260507074547 -4 275 0.0 0.0 0.00 0.00 0.00 79 1012.4
20260507073045 -3 275 0.0 0.0 0.00 0.00 0.00 76 1012.3
20260507071514 -3 275 0.0 0.0 0.00 0.00 0.00 76 1012.4
20260507070014 -3 275 0.0 0.0 0.00 0.00 0.00 75 1012.4
20260507064511 -3 275 0.0 0.0 0.00 0.00 0.00 76 1012.4
20260507063010 -3 275 0.0 0.0 0.00 0.00 0.00 77 1012.5
20260507061512 -5 275 0.0 0.0 0.00 0.00 0.00 79 1012.5
20260507060008 -5 275 0.0 0.0 0.00 0.00 0.00 80 1012.5
20260507054535 -5 275 0.0 0.0 0.00 0.00 0.00 78 1012.6
20260507053032 -4 275 0.0 0.0 0.00 0.00 0.00 76 1012.6
20260507051537 -3 275 0.0 0.0 0.00 0.00 0.00 75 1012.6
20260507050026 -3 275 0.0 0.0 0.00 0.00 0.00 73 1012.6
20260507044526 -2 275 0.0 0.0 0.00 0.00 0.00 72 1012.7
20260507043024 -3 275 0.0 0.0 0.00 0.00 0.00 73 1012.7
20260507041521 -3 275 0.0 0.0 0.00 0.00 0.00 77 1012.8
20260507040020 -3 275 0.0 0.0 0.00 0.00 0.00 74 1012.9
20260507034521 -3 275 0.0 0.0 0.00 0.00 0.00 70 1012.9
20260507033011 -2 275 0.0 0.0 0.00 0.00 0.00 68 1012.9
20260507031510 -2 276 0.0 0.0 0.00 0.00 0.00 67 1012.9
20260507030002 -1 275 0.0 0.0 0.00 0.00 0.00 64 1012.9
20260507024602 0 275 0.0 0.0 0.00 0.00 0.00 60 1012.8
20260507023056 2 360 0.0 0.0 0.00 0.00 0.00 54 1012.9
20260507021551 4 339 0.0 0.0 0.00 0.00 0.00 46 1012.9
20260507020052 5 339 0.0 0.0 0.00 0.00 0.00 45 1012.9
20260507014546 6 340 0.0 0.0 0.00 0.00 0.00 43 1013.0
20260507013045 8 345 0.0 0.0 0.00 0.00 0.00 41 1013.0
20260507011545 8 20 0.0 0.0 0.00 0.00 0.00 38 1013.0
20260507010049 9 350 0.0 0.0 0.00 0.00 0.00 37 1013.1
20260507004534 9 347 0.0 0.0 0.00 0.00 0.00 37 1013.1
20260507003032 9 328 0.0 0.0 0.00 0.00 0.00 35 1013.3
20260507001529 9 331 0.0 0.0 0.00 0.00 0.00 36 1013.4
20260507000027 10 320 0.0 0.0 0.00 0.00 0.00 36 1013.5
20260506234525 10 325 0.0 0.0 0.00 0.00 0.00 36 1013.7
20260506233024 10 307 0.0 0.0 0.00 0.00 0.00 38 1013.8
20260506231522 9 353 0.0 0.0 0.00 0.00 0.00 37 1014.0
20260506230017 10 304 0.0 0.0 0.00 0.00 0.00 38 1014.1
20260506224516 9 330 0.0 1.6 0.00 0.00 0.00 38 1014.3
20260506223012 8 317 0.0 1.6 0.00 0.00 0.00 39 1014.4
20260506221508 8 297 0.0 0.0 0.00 0.00 0.00 41 1014.7
20260506220007 8 295 0.0 0.0 0.00 0.00 0.00 40 1014.9
20260506214505 9 326 0.0 0.0 0.00 0.00 0.00 38 1015.0
20260506213004 8 338 0.0 0.0 0.00 0.00 0.00 38 1015.2
20260506211600 9 304 0.0 1.6 0.00 0.00 0.00 42 1015.3
20260506210057 8 13 0.0 0.0 0.00 0.00 0.00 38 1015.6
20260506204604 8 356 0.0 0.0 0.00 0.00 0.00 39 1015.8
20260506203052 8 321 0.0 0.0 0.00 0.00 0.00 39 1016.0
20260506201547 8 302 0.0 1.6 0.00 0.00 0.00 38 1016.2
20260506200044 8 304 0.0 3.2 0.00 0.00 0.00 40 1016.4
20260506194543 8 323 0.0 3.2 0.00 0.00 0.00 40 1016.5
20260506193042 8 316 0.0 1.6 0.00 0.00 0.00 43 1016.6
20260506191539 7 20 0.0 1.6 0.00 0.00 0.00 42 1016.9
20260506190036 7 326 0.0 3.2 0.00 0.00 0.00 46 1017.0
20260506184534 7 353 0.0 1.6 0.00 0.00 0.00 44 1017.1
20260506183031 7 1 0.0 1.6 0.00 0.00 0.00 45 1017.3
20260506181528 6 323 0.0 1.6 0.00 0.00 0.00 44 1017.5
20260506180056 7 325 0.0 1.6 0.00 0.00 0.00 46 1017.6
20260506174601 7 358 0.0 0.0 0.00 0.00 0.00 47 1017.8
20260506173115 6 319 0.0 9.7 0.00 0.00 0.00 46 1018.1
20260506171550 5 333 0.0 1.6 0.00 0.00 0.00 47 1018.3
20260506170047 5 334 0.0 1.6 0.00 0.00 0.00 50 1018.5
20260506164542 5 345 0.0 0.0 0.00 0.00 0.00 49 1018.6
20260506163042 5 342 0.0 0.0 0.00 0.00 0.00 52 1018.7
20260506161539 5 340 0.0 0.0 0.00 0.00 0.00 52 1018.8
20260506160037 5 309 0.0 1.6 0.00 0.00 0.00 52 1018.9
20260506154539 3 10 0.0 0.0 0.00 0.00 0.00 53 1019.0
20260506153041 4 300 0.0 0.0 0.00 0.00 0.00 52 1019.0
20260506151532 3 314 0.0 0.0 0.00 0.00 0.00 51 1019.2
20260506150040 4 299 0.0 0.0 0.00 0.00 0.00 55 1019.2
20260506144550 3 299 0.0 0.0 0.00 0.00 0.00 57 1019.4
20260506143100 3 304 0.0 0.0 0.00 0.00 0.00 58 1019.3
20260506141600 2 323 0.0 0.0 0.00 0.00 0.00 59 1019.4
20260506140115 2 325 0.0 0.0 0.00 0.00 0.00 59 1019.4